Weather History for Westhampton Beach, NY

Change the Weather History Date:

Saturday, February 2, 2013

  Actual Average Record
Temperature  
Mean Temperature 24 °F -  
Max Temperature 30 °F 37 °F 50 °F (1999)
Min Temperature 18 °F 20 °F 3 °F (2005)
Degree Days  
Heating Degree Days 41    
Moisture  
Dew Point 13 °F    
Average Humidity 57    
Maximum Humidity 81    
Minimum Humidity 38    
Precipitation  
Precipitation 0.00 in - - ()
Sea Level Pressure  
Sea Level Pressure 30.17 in    
Wind  
Wind Speed 11 mph (WSW)    
Max Wind Speed 15 mph    
Max Gust Speed 24 mph    
Visibility 8 miles    
Events Snow    
Averages and records for this station are not official NWS values.
T = Trace of Precipitation, MM = Missing Value Source: NWS Daily Summary

Daily Weather History Graph

Daily Weather History Graph

Search for Another Location

Airport:

Trip Planner

Search our weather history database for the weather conditions in past years. The results will help you decide how hot, cold, wet, or windy it might be!

Date:

Astronomy

Feb. 02, 2013 Rise Set
Actual Time 6:59 AM EST 5:09 PM EST
Civil Twilight 6:30 AM EST 5:38 PM EST
Nautical Twilight 5:57 AM EST 6:11 PM EST
Astronomical Twilight 5:25 AM EST 6:43 PM EST
Moon No Moon Rise 10:05 AM EST (2/2)
Length of Visible Light 11h 07m
Length of Day
10h 09m
Waning Gibbous, 60% of the Moon is Illuminated
Feb 2
Waning Gibbous
Feb 3
Last Quarter
Feb 10
New
Feb 17
First Quarter
Feb 25
Full

Hourly Weather History & Observations

Time (EST) Temp. Windchill Dew Point Humidity Pressure Visibility Wind Dir Wind Speed Gust Speed Precip Events Conditions
12:53 AM 24.1 °F 12.5 °F 5.0 °F 44% 30.22 in 10.0 mi West 12.7 mph - N/A   Clear
1:53 AM 23.0 °F 11.7 °F 6.1 °F 48% 30.23 in 10.0 mi West 11.5 mph - N/A   Partly Cloudy
2:53 AM 21.9 °F 13.4 °F 7.0 °F 53% 30.25 in 10.0 mi West 6.9 mph - N/A   Scattered Clouds
6:53 AM 18.0 °F 9.8 °F 7.0 °F 62% 30.28 in 10.0 mi West 5.8 mph - N/A   Clear
7:53 AM 21.0 °F 9.3 °F 9.0 °F 60% 30.31 in 10.0 mi WSW 11.5 mph - N/A   Clear
8:53 AM 25.0 °F 14.8 °F 9.0 °F 51% 30.31 in 10.0 mi West 10.4 mph - N/A   Clear
10:53 AM 28.9 °F 22.8 °F 6.1 °F 38% 30.29 in 10.0 mi SSW 5.8 mph - N/A   Clear
11:53 AM 28.0 °F 18.1 °F 10.9 °F 49% 30.26 in 10.0 mi SSW 11.5 mph - N/A   Clear
12:53 PM 30.0 °F 20.5 °F 12.9 °F 49% 30.21 in 10.0 mi SW 11.5 mph 19.6 mph N/A   Partly Cloudy
1:53 PM 30.0 °F 20.0 °F 10.9 °F 45% 30.18 in 10.0 mi SSW 12.7 mph 24.2 mph N/A   Partly Cloudy
2:53 PM 30.0 °F 19.1 °F 12.0 °F 47% 30.16 in 10.0 mi SW 15.0 mph 24.2 mph N/A   Scattered Clouds
3:53 PM 28.9 °F 18.2 °F 12.0 °F 49% 30.14 in 10.0 mi SW 13.8 mph 21.9 mph N/A   Partly Cloudy
4:53 PM 28.9 °F 18.2 °F 12.0 °F 49% 30.14 in 10.0 mi SW 13.8 mph 18.4 mph N/A   Overcast
5:53 PM 30.0 °F 20.0 °F 12.9 °F 49% 30.12 in 10.0 mi SW 12.7 mph 18.4 mph N/A   Overcast
6:53 PM 30.9 °F 22.2 °F 12.9 °F 47% 30.11 in 10.0 mi SW 10.4 mph - N/A   Overcast
7:53 PM 30.9 °F 21.2 °F 14.0 °F 50% 30.10 in 10.0 mi WSW 12.7 mph - N/A   Overcast
8:53 PM 30.0 °F 19.5 °F 16.0 °F 56% 30.10 in 10.0 mi WSW 13.8 mph - N/A   Overcast
9:37 PM 28.4 °F 18.0 °F 17.6 °F 64% 30.10 in 4.0 mi WSW 12.7 mph - 0.00 in Snow Light Snow
9:51 PM 26.6 °F 16.2 °F 17.6 °F 69% 30.10 in 2.0 mi West 11.5 mph - 0.00 in Snow Light Snow
9:53 PM 27.0 °F 16.7 °F 18.0 °F 69% 30.11 in 2.0 mi West 11.5 mph - 0.00 in Snow Light Snow
10:35 PM 26.6 °F 18.2 °F 19.4 °F 74% 30.10 in 3.0 mi West 8.1 mph - 0.00 in Snow Light Snow
10:53 PM 26.1 °F 16.8 °F 19.9 °F 78% 30.11 in 4.0 mi West 9.2 mph - 0.00 in Snow Light Snow
11:30 PM 24.8 °F 16.9 °F 19.4 °F 80% 30.10 in 2.5 mi WNW 6.9 mph - 0.00 in Snow Light Snow
11:53 PM 25.0 °F 16.3 °F 19.9 °F 81% 30.09 in 1.8 mi WNW 8.1 mph - 0.00 in Snow Light Snow